Showing default

YAM-15, 68997

Orbit data source: Space-Track

YAM-15, 68997 is an American payload satellite in SSO that was launched on Sun, 03 May 2026 UTC via an FALCON 9 launch vehicle from the Air Force Western Test Range (AFWTR). Payload-class satellites include a variety of spacecraft equipped with specific instruments for various scientific and technological missions. These include communications satellites like Starlink; space stations such as the ISS; scientific satellites like the Hubble; Earth observation satellites from companies like Planet Labs, Umbra, and HawkEye 360; GPS; miniature CubeSats for education and research; and military/defense satellites.

Loading next visibility...
Identifier
68997, 2026-100T
Orbit
SSO
Country
Flag of USUS
Related business
Manufacturer
Airbus/Toulouse
Mission
Operational Commercial Imaging
Bus & Motor
ARROW, Unknown motor
Mass
~150 kg wet, ~140 kg dry
Launch date (UTC)
2026-05-03 (5 months ago)
Launch vehicle
FALCON 9
Launch site
Air Force Western Test Range (AFWTR)
Object type
Payload
Rocket body
Debris
Shape & HBR
Trap Box + 2 Pan, 2.3 m
Radar Cross Section
2.032 m², Large (>1 m²)

Expand to show TLE details & history
Last TLE update: 23 hours ago

TLE from 23 hours ago
0 YAM-15
1 68997U 26100T   26264.13303996  .00000928  00000-0  10082-3 0  9995
2 68997  97.7756 159.9975 0001887  78.5430 281.5999 14.90441058 20997
Epoch: 2026-09-21T03:11Z
TLE epoch observation values (Epoch: 2026-09-21T03:11:34.652Z)
Latitude
-0.00011°
Longitude
112.08588°
Altitude
599.334 km
Speed
7.56 km/s
True Right ascension
10h 39m 59s
True Declination
0° 00' 00"
Sunlit
Object was in daylight at epoch
Visualization orbit readout
Latitude
Unknown
Longitude
Unknown
Altitude
Unknown
Speed
Unknown
Apparent Right ascension
Unknown
Apparent Declination
Unknown
Sunlit
N/A
Visualization observer readout
Local Sidereal Time
19:14:13
Azimuth
Unknown
Elevation
Unknown
Doppler factor
Unknown
Orbital elements
Apogee altitude
594.896 km
Perigee altitude
592.265 km
Semi-major axis
6,971.718 km
Eccentricity
0.00019
Inclination
97.7756°
RAAN
159.9975°
Arg. of periapsis
78.543°
True anomaly
281.57872°
Mean anomaly
281.5999°
Eccentric anomaly
281.58931°
Mean motion
3.72849 °/min
Orbital period
96.55 mins
BSTAR
0.00010082
Loading maneuver chart data...
Computing Atmospheric mass density...
Loading historical data...
Loading historical data...
Loading historical data...
Loading historical data...
Loading historical data...
Loading historical data...
Loading historical data...

Documentation

Showing up to 5 results
|